Time,TemperatureF,DewpointF,PressureIn,WindDirection,WindDirectionDegrees,WindSpeedMPH,WindSpeedGustMPH,Humidity,HourlyPrecipIn,Conditions,Clouds,dailyrainin,SoftwareType,DateUTC
2013-06-06 00:01:00,56.1,41.5,30.03,East,84,3.0,11.0,58,0.00,,,0.06,meteohub,2013-06-06 04:01:00,
2013-06-06 00:02:00,56.1,41.5,30.03,East,84,4.0,11.0,58,0.00,,,0.06,meteohub,2013-06-06 04:02:00,
2013-06-06 00:07:00,56.1,41.9,30.02,NE,47,4.0,11.0,59,0.00,,,0.00,meteohub,2013-06-06 04:07:00,
2013-06-06 00:12:00,56.1,41.9,30.02,ENE,73,6.0,11.0,59,0.00,,,0.00,meteohub,2013-06-06 04:12:00,
2013-06-06 00:17:00,56.1,41.9,30.02,ESE,104,4.0,11.0,59,0.00,,,0.00,meteohub,2013-06-06 04:17:00,
2013-06-06 00:22:00,55.9,41.9,30.02,East,91,4.0,9.0,59,0.00,,,0.00,meteohub,2013-06-06 04:22:00,
2013-06-06 00:27:00,55.9,42.3,30.02,East,89,5.0,12.0,60,0.00,,,0.00,meteohub,2013-06-06 04:27:00,
2013-06-06 00:32:00,55.9,42.3,30.02,ESE,109,6.0,12.0,60,0.00,,,0.00,meteohub,2013-06-06 04:32:00,
2013-06-06 00:37:00,55.8,42.4,30.02,East,83,2.0,12.0,61,0.00,,,0.00,meteohub,2013-06-06 04:37:00,
2013-06-06 00:42:00,55.8,42.4,30.02,ENE,70,1.0,11.0,61,0.00,,,0.00,meteohub,2013-06-06 04:42:00,
2013-06-06 00:47:00,55.8,42.4,30.02,ENE,57,3.0,8.0,61,0.00,,,0.00,meteohub,2013-06-06 04:47:00,
2013-06-06 00:52:00,55.8,43.0,30.02,East,97,5.0,10.0,62,0.00,,,0.00,meteohub,2013-06-06 04:52:00,
2013-06-06 00:57:00,55.8,43.0,30.02,ESE,109,7.0,10.0,62,0.00,,,0.00,meteohub,2013-06-06 04:57:00,
2013-06-06 01:03:00,55.8,43.0,30.01,ENE,76,5.0,10.0,62,0.00,,,0.00,meteohub,2013-06-06 05:03:00,
2013-06-06 01:08:00,55.8,43.0,30.01,ENE,65,5.0,11.0,62,0.00,,,0.00,meteohub,2013-06-06 05:08:00,
2013-06-06 01:13:00,55.8,43.3,30.01,East,80,6.0,11.0,63,0.00,,,0.00,meteohub,2013-06-06 05:13:00,
2013-06-06 01:18:00,55.8,43.3,30.01,ENE,59,8.0,11.0,63,0.00,,,0.00,meteohub,2013-06-06 05:18:00,
2013-06-06 01:23:00,55.8,43.3,30.01,ESE,105,4.0,12.0,63,0.00,,,0.00,meteohub,2013-06-06 05:23:00,
2013-06-06 01:28:00,55.8,43.7,30.01,NE,46,4.0,12.0,64,0.00,,,0.00,meteohub,2013-06-06 05:28:00,
2013-06-06 01:33:00,55.6,43.5,30.01,East,97,11.0,12.0,64,0.00,,,0.00,meteohub,2013-06-06 05:33:00,
2013-06-06 01:38:00,55.6,43.5,30.01,ENE,76,3.0,14.0,64,0.00,,,0.00,meteohub,2013-06-06 05:38:00,
2013-06-06 01:43:00,55.6,43.5,30.01,ENE,77,5.0,14.0,64,0.00,,,0.00,meteohub,2013-06-06 05:43:00,
2013-06-06 01:48:00,55.6,43.5,30.00,NE,47,5.0,14.0,64,0.00,,,0.00,meteohub,2013-06-06 05:48:00,
2013-06-06 01:53:00,55.6,43.5,30.00,East,89,8.0,13.0,64,0.00,,,0.00,meteohub,2013-06-06 05:53:00,
2013-06-06 01:58:00,55.6,44.1,29.99,East,80,5.0,15.0,65,0.00,,,0.00,meteohub,2013-06-06 05:58:00,
2013-06-06 02:03:00,55.6,44.1,29.99,East,82,3.0,15.0,65,0.00,,,0.00,meteohub,2013-06-06 06:03:00,
2013-06-06 02:08:00,55.6,44.1,29.99,ENE,77,10.0,15.0,65,0.00,,,0.00,meteohub,2013-06-06 06:08:00,
2013-06-06 02:13:00,55.6,44.1,29.99,ESE,103,8.0,14.0,65,0.00,,,0.00,meteohub,2013-06-06 06:13:00,
2013-06-06 02:18:00,55.6,44.4,29.99,ENE,70,10.0,18.0,66,0.00,,,0.00,meteohub,2013-06-06 06:18:00,
2013-06-06 02:23:00,55.6,44.4,29.98,ENE,76,11.0,18.0,66,0.00,,,0.00,meteohub,2013-06-06 06:23:00,
2013-06-06 02:28:00,55.6,44.4,29.98,East,90,7.0,19.0,66,0.00,,,0.00,meteohub,2013-06-06 06:28:00,
2013-06-06 02:33:00,55.4,44.6,29.98,ENE,64,6.0,19.0,67,0.00,,,0.00,meteohub,2013-06-06 06:33:00,
2013-06-06 02:38:00,55.4,45.0,29.98,East,81,14.0,19.0,68,0.00,,,0.00,meteohub,2013-06-06 06:38:00,
2013-06-06 02:43:00,55.4,45.0,29.98,ESE,118,6.0,18.0,68,0.00,,,0.00,meteohub,2013-06-06 06:43:00,
2013-06-06 02:48:00,55.6,45.5,29.98,ESE,107,13.0,18.0,69,0.00,,,0.00,meteohub,2013-06-06 06:48:00,
2013-06-06 02:53:00,55.6,45.5,29.97,East,90,6.0,18.0,69,0.00,,,0.00,meteohub,2013-06-06 06:53:00,
2013-06-06 02:58:00,55.6,45.5,29.97,East,94,9.0,18.0,69,0.00,,,0.00,meteohub,2013-06-06 06:58:00,
2013-06-06 03:03:00,55.6,46.0,29.96,East,82,5.0,16.0,70,0.00,,,0.00,meteohub,2013-06-06 07:03:00,
2013-06-06 03:08:00,55.8,46.0,29.96,East,88,8.0,15.0,70,0.00,,,0.00,meteohub,2013-06-06 07:08:00,
2013-06-06 03:14:00,55.8,46.0,29.96,ENE,76,5.0,14.0,70,0.00,,,0.00,meteohub,2013-06-06 07:14:00,
2013-06-06 03:19:00,55.8,46.6,29.96,East,88,7.0,15.0,71,0.00,,,0.00,meteohub,2013-06-06 07:19:00,
2013-06-06 03:24:00,55.8,46.6,29.96,East,89,8.0,15.0,71,0.00,,,0.00,meteohub,2013-06-06 07:24:00,
2013-06-06 03:29:00,55.8,46.6,29.96,East,88,3.0,16.0,71,0.00,,,0.00,meteohub,2013-06-06 07:29:00,
2013-06-06 03:34:00,55.8,46.6,29.95,NE,44,4.0,19.0,71,0.00,,,0.00,meteohub,2013-06-06 07:34:00,
2013-06-06 03:39:00,55.8,46.9,29.95,East,81,4.0,19.0,72,0.00,,,0.00,meteohub,2013-06-06 07:39:00,
2013-06-06 03:44:00,55.8,46.9,29.95,ESE,123,4.0,19.0,72,0.00,,,0.00,meteohub,2013-06-06 07:44:00,
2013-06-06 03:49:00,55.8,46.9,29.94,East,82,8.0,14.0,72,0.00,,,0.00,meteohub,2013-06-06 07:49:00,
2013-06-06 03:54:00,55.9,47.1,29.94,ENE,67,2.0,15.0,72,0.00,,,0.00,meteohub,2013-06-06 07:54:00,
2013-06-06 03:59:00,55.8,46.9,29.93,NE,52,4.0,18.0,72,0.00,,,0.00,meteohub,2013-06-06 07:59:00,
2013-06-06 04:04:00,55.8,47.3,29.93,ESE,123,8.0,18.0,73,0.00,,,0.00,meteohub,2013-06-06 08:04:00,
2013-06-06 04:09:00,55.9,47.5,29.93,ENE,61,3.0,18.0,73,0.00,,,0.00,meteohub,2013-06-06 08:09:00,
2013-06-06 04:14:00,55.9,47.5,29.93,East,88,2.0,11.0,73,0.00,,,0.00,meteohub,2013-06-06 08:14:00,
2013-06-06 04:19:00,55.9,47.5,29.93,ENE,74,5.0,10.0,73,0.00,,,0.00,meteohub,2013-06-06 08:19:00,
2013-06-06 04:24:00,55.9,47.5,29.93,East,94,5.0,10.0,73,0.00,,,0.00,meteohub,2013-06-06 08:24:00,
2013-06-06 04:29:00,55.9,47.5,29.93,ENE,76,4.0,10.0,73,0.00,,,0.00,meteohub,2013-06-06 08:29:00,
2013-06-06 04:34:00,56.1,47.7,29.93,NE,50,5.0,10.0,73,0.00,,,0.00,meteohub,2013-06-06 08:34:00,
2013-06-06 04:39:00,56.1,47.7,29.93,NE,53,7.0,10.0,73,0.00,,,0.00,meteohub,2013-06-06 08:39:00,
2013-06-06 04:44:00,56.1,48.0,29.93,NE,47,4.0,10.0,74,0.00,,,0.00,meteohub,2013-06-06 08:44:00,
2013-06-06 04:49:00,56.1,48.0,29.95,WNW,296,1.0,10.0,74,0.00,,,0.00,meteohub,2013-06-06 08:49:00,
2013-06-06 04:54:00,56.1,48.0,29.95,NNE,28,9.0,10.0,74,0.00,,,0.00,meteohub,2013-06-06 08:54:00,
2013-06-06 04:59:00,56.1,48.0,29.94,NE,51,2.0,10.0,74,0.00,,,0.00,meteohub,2013-06-06 08:59:00,
2013-06-06 05:04:00,56.3,48.2,29.94,NE,44,5.0,12.0,74,0.00,,,0.00,meteohub,2013-06-06 09:04:00,
2013-06-06 05:09:00,56.1,48.4,29.94,ENE,64,7.0,12.0,75,0.00,,,0.00,meteohub,2013-06-06 09:09:00,
2013-06-06 05:15:00,56.1,48.4,29.94,NNE,33,5.0,12.0,75,0.00,,,0.00,meteohub,2013-06-06 09:15:00,
2013-06-06 05:20:00,56.1,48.4,29.94,NE,48,4.0,12.0,75,0.00,,,0.00,meteohub,2013-06-06 09:20:00,
2013-06-06 05:25:00,55.9,48.6,29.94,NNE,30,2.0,12.0,76,0.00,,,0.00,meteohub,2013-06-06 09:25:00,
2013-06-06 05:30:00,55.8,48.7,29.94,ENE,70,4.0,12.0,77,0.00,,,0.00,meteohub,2013-06-06 09:30:00,
2013-06-06 05:35:00,55.6,48.6,29.94,NE,46,7.0,12.0,77,0.00,,,0.00,meteohub,2013-06-06 09:35:00,
2013-06-06 05:40:00,55.6,48.6,29.94,NE,34,8.0,13.0,77,0.00,,,0.00,meteohub,2013-06-06 09:40:00,
2013-06-06 05:45:00,55.4,48.4,29.94,NE,50,10.0,13.0,77,0.00,,,0.00,meteohub,2013-06-06 09:45:00,
2013-06-06 05:50:00,55.0,48.4,29.94,ENE,67,4.0,13.0,78,0.00,,,0.00,meteohub,2013-06-06 09:50:00,
2013-06-06 05:55:00,54.9,48.2,29.94,North,0,8.0,13.0,78,0.00,,,0.00,meteohub,2013-06-06 09:55:00,
2013-06-06 06:00:00,54.7,48.6,29.94,NE,53,3.0,13.0,80,0.00,,,0.00,meteohub,2013-06-06 10:00:00,
2013-06-06 06:05:00,54.1,48.4,29.94,ENE,72,3.0,13.0,81,0.00,,,0.00,meteohub,2013-06-06 10:05:00,
2013-06-06 06:10:00,53.6,48.6,29.94,NE,40,5.0,13.0,83,0.00,,,0.00,meteohub,2013-06-06 10:10:00,
2013-06-06 06:15:00,53.4,48.7,29.94,ENE,62,11.0,14.0,84,0.00,,,0.00,meteohub,2013-06-06 10:15:00,
2013-06-06 06:20:00,53.2,48.6,29.94,NE,36,2.0,14.0,84,0.00,,,0.00,meteohub,2013-06-06 10:20:00,
2013-06-06 06:26:00,52.9,48.6,29.94,NNE,28,13.0,14.0,85,0.00,,,0.00,meteohub,2013-06-06 10:26:00,
2013-06-06 06:31:00,52.7,48.6,29.94,NE,39,8.0,17.0,86,0.00,,,0.00,meteohub,2013-06-06 10:31:00,
2013-06-06 06:36:00,52.5,48.4,29.94,ENE,59,10.0,17.0,86,0.00,,,0.00,meteohub,2013-06-06 10:36:00,
2013-06-06 06:41:00,52.3,48.2,29.94,NE,47,3.0,17.0,86,0.00,,,0.00,meteohub,2013-06-06 10:41:00,
2013-06-06 06:46:00,52.3,48.6,29.94,ENE,68,6.0,17.0,87,0.00,,,0.00,meteohub,2013-06-06 10:46:00,
2013-06-06 06:51:00,52.3,48.6,29.94,East,99,9.0,13.0,87,0.00,,,0.00,meteohub,2013-06-06 10:51:00,
2013-06-06 06:56:00,52.3,48.6,29.94,ENE,63,6.0,13.0,87,0.00,,,0.00,meteohub,2013-06-06 10:56:00,
2013-06-06 07:01:00,52.2,48.4,29.94,NE,55,4.0,12.0,87,0.00,,,0.00,meteohub,2013-06-06 11:01:00,
2013-06-06 07:07:00,52.2,48.7,29.94,ESE,108,5.0,12.0,88,0.00,,,0.00,meteohub,2013-06-06 11:07:00,
2013-06-06 07:12:00,52.2,48.7,29.94,ENE,69,5.0,13.0,88,0.00,,,0.00,meteohub,2013-06-06 11:12:00,
2013-06-06 07:17:00,52.2,48.7,29.94,East,80,3.0,13.0,88,0.00,,,0.00,meteohub,2013-06-06 11:17:00,
2013-06-06 07:22:00,52.3,48.9,29.94,East,82,3.0,13.0,88,0.00,,,0.00,meteohub,2013-06-06 11:22:00,
2013-06-06 07:27:00,52.3,48.9,29.94,ENE,69,3.0,13.0,88,0.00,,,0.00,meteohub,2013-06-06 11:27:00,
2013-06-06 07:32:00,52.3,48.9,29.94,NE,40,4.0,13.0,88,0.00,,,0.00,meteohub,2013-06-06 11:32:00,
2013-06-06 07:37:00,52.5,49.1,29.94,East,82,6.0,11.0,88,0.00,,,0.00,meteohub,2013-06-06 11:37:00,
2013-06-06 07:42:00,52.5,49.1,29.94,East,88,6.0,12.0,88,0.00,,,0.00,meteohub,2013-06-06 11:42:00,
2013-06-06 07:47:00,52.5,49.1,29.94,East,79,0.0,12.0,88,0.00,,,0.00,meteohub,2013-06-06 11:47:00,
2013-06-06 07:52:00,52.5,48.7,29.93,ENE,59,5.0,12.0,87,0.00,,,0.00,meteohub,2013-06-06 11:52:00,
2013-06-06 07:58:00,52.5,48.7,29.93,East,101,8.0,12.0,87,0.00,,,0.00,meteohub,2013-06-06 11:58:00,
2013-06-06 08:03:00,52.7,49.3,29.93,East,84,1.0,12.0,88,0.00,,,0.00,meteohub,2013-06-06 12:03:00,
2013-06-06 08:08:00,52.9,49.5,29.93,ENE,75,7.0,12.0,88,0.00,,,0.00,meteohub,2013-06-06 12:08:00,
2013-06-06 08:13:00,52.9,49.5,29.93,East,80,7.0,10.0,88,0.00,,,0.00,meteohub,2013-06-06 12:13:00,
2013-06-06 08:18:00,52.9,49.5,29.93,ENE,66,0.0,10.0,88,0.00,,,0.00,meteohub,2013-06-06 12:18:00,
2013-06-06 08:23:00,52.9,49.5,29.92,ENE,78,4.0,10.0,88,0.00,,,0.00,meteohub,2013-06-06 12:23:00,
2013-06-06 08:28:00,52.9,49.6,29.93,East,80,2.0,10.0,89,0.00,,,0.00,meteohub,2013-06-06 12:28:00,
2013-06-06 08:33:00,52.9,49.6,29.93,East,88,1.0,13.0,89,0.00,,,0.00,meteohub,2013-06-06 12:33:00,
2013-06-06 08:38:00,53.1,50.2,29.93,ENE,78,3.0,13.0,90,0.00,,,0.00,meteohub,2013-06-06 12:38:00,
2013-06-06 08:43:00,52.9,50.0,29.93,ENE,64,11.0,12.0,90,0.01,,,0.00,meteohub,2013-06-06 12:43:00,
2013-06-06 08:48:00,52.9,50.0,29.93,ESE,113,4.0,12.0,90,0.01,,,0.00,meteohub,2013-06-06 12:48:00,
2013-06-06 08:53:00,52.7,50.2,29.92,ESE,104,7.0,13.0,91,0.01,,,0.01,meteohub,2013-06-06 12:53:00,
2013-06-06 08:58:00,52.9,50.4,29.92,East,95,2.0,13.0,91,0.01,,,0.01,meteohub,2013-06-06 12:58:00,
2013-06-06 09:03:00,52.7,50.2,29.92,East,91,2.0,11.0,91,0.01,,,0.01,meteohub,2013-06-06 13:03:00,
2013-06-06 09:08:00,52.7,50.4,29.92,ENE,75,5.0,11.0,92,0.01,,,0.01,meteohub,2013-06-06 13:08:00,
2013-06-06 09:13:00,52.5,50.2,29.92,ENE,71,5.0,13.0,92,0.02,,,0.02,meteohub,2013-06-06 13:13:00,
2013-06-06 09:18:00,52.5,50.2,29.92,ESE,103,2.0,13.0,92,0.02,,,0.02,meteohub,2013-06-06 13:18:00,
2013-06-06 09:23:00,52.7,50.4,29.92,ENE,72,8.0,13.0,92,0.03,,,0.03,meteohub,2013-06-06 13:23:00,
2013-06-06 09:28:00,52.7,50.7,29.92,ENE,71,5.0,13.0,93,0.03,,,0.03,meteohub,2013-06-06 13:28:00,
2013-06-06 09:33:00,52.7,50.7,29.92,ENE,76,1.0,12.0,93,0.04,,,0.04,meteohub,2013-06-06 13:33:00,
2013-06-06 09:39:00,52.7,50.7,29.92,East,94,4.0,12.0,93,0.04,,,0.04,meteohub,2013-06-06 13:39:00,
2013-06-06 09:44:00,52.9,50.9,29.92,NNE,26,5.0,8.0,93,0.04,,,0.04,meteohub,2013-06-06 13:44:00,
2013-06-06 09:49:00,52.9,50.9,29.92,NE,51,2.0,8.0,93,0.04,,,0.04,meteohub,2013-06-06 13:49:00,
2013-06-06 09:54:00,53.1,51.4,29.92,ENE,65,4.0,11.0,94,0.05,,,0.06,meteohub,2013-06-06 13:54:00,
2013-06-06 09:59:00,53.1,51.4,29.92,East,82,3.0,11.0,94,0.05,,,0.06,meteohub,2013-06-06 13:59:00,
2013-06-06 10:04:00,53.1,51.4,29.91,East,79,7.0,7.0,94,0.06,,,0.07,meteohub,2013-06-06 14:04:00,
2013-06-06 10:09:00,53.1,51.4,29.91,ENE,63,0.0,7.0,94,0.06,,,0.07,meteohub,2013-06-06 14:09:00,
2013-06-06 10:14:00,53.2,51.6,29.91,ENE,67,5.0,10.0,94,0.06,,,0.08,meteohub,2013-06-06 14:14:00,
2013-06-06 10:19:00,53.2,51.6,29.91,ENE,67,3.0,11.0,94,0.07,,,0.09,meteohub,2013-06-06 14:19:00,
2013-06-06 10:24:00,53.2,51.6,29.91,East,87,3.0,11.0,94,0.06,,,0.09,meteohub,2013-06-06 14:24:00,
2013-06-06 10:29:00,53.2,51.6,29.91,ESE,105,5.0,11.0,94,0.06,,,0.09,meteohub,2013-06-06 14:29:00,
2013-06-06 10:34:00,53.2,51.6,29.91,ENE,65,3.0,13.0,94,0.06,,,0.10,meteohub,2013-06-06 14:34:00,
2013-06-06 10:39:00,53.4,52.0,29.90,ENE,67,10.0,13.0,95,0.06,,,0.10,meteohub,2013-06-06 14:39:00,
2013-06-06 10:45:00,53.4,52.0,29.90,East,88,0.0,13.0,95,0.06,,,0.11,meteohub,2013-06-06 14:45:00,
2013-06-06 10:50:00,53.6,52.2,29.90,NE,42,5.0,13.0,95,0.06,,,0.11,meteohub,2013-06-06 14:50:00,
2013-06-06 10:55:00,53.8,52.3,29.89,East,93,9.0,13.0,95,0.05,,,0.11,meteohub,2013-06-06 14:55:00,
2013-06-06 11:00:00,53.8,52.3,29.89,SE,130,8.0,13.0,95,0.05,,,0.11,meteohub,2013-06-06 15:00:00,
2013-06-06 11:05:00,54.0,52.5,29.90,East,79,5.0,13.0,95,0.04,,,0.11,meteohub,2013-06-06 15:05:00,
2013-06-06 11:10:00,54.1,52.7,29.89,ESE,113,2.0,12.0,95,0.04,,,0.12,meteohub,2013-06-06 15:10:00,
2013-06-06 11:15:00,54.1,52.7,29.89,East,79,3.0,14.0,95,0.04,,,0.12,meteohub,2013-06-06 15:15:00,
2013-06-06 11:20:00,54.3,52.9,29.89,ENE,68,8.0,14.0,95,0.03,,,0.12,meteohub,2013-06-06 15:20:00,
2013-06-06 11:25:00,54.3,52.9,29.89,ENE,78,3.0,14.0,95,0.04,,,0.13,meteohub,2013-06-06 15:25:00,
2013-06-06 11:30:00,54.5,53.1,29.89,East,92,0.0,12.0,95,0.04,,,0.14,meteohub,2013-06-06 15:30:00,
2013-06-06 11:35:00,54.7,53.2,29.89,East,100,4.0,12.0,95,0.04,,,0.14,meteohub,2013-06-06 15:35:00,
2013-06-06 11:40:00,54.7,53.2,29.89,East,88,5.0,12.0,95,0.03,,,0.15,meteohub,2013-06-06 15:40:00,
2013-06-06 11:45:00,54.7,53.2,29.89,ENE,61,3.0,10.0,95,0.04,,,0.16,meteohub,2013-06-06 15:45:00,
2013-06-06 11:50:00,54.7,53.6,29.89,East,100,1.0,10.0,96,0.05,,,0.17,meteohub,2013-06-06 15:50:00,
2013-06-06 11:55:00,54.9,53.8,29.88,ENE,67,5.0,8.0,96,0.06,,,0.18,meteohub,2013-06-06 15:55:00,
2013-06-06 12:00:00,54.9,53.8,29.89,East,87,2.0,7.0,96,0.08,,,0.21,meteohub,2013-06-06 16:00:00,
2013-06-06 12:05:00,54.9,53.8,29.89,East,84,1.0,8.0,96,0.10,,,0.23,meteohub,2013-06-06 16:05:00,
2013-06-06 12:10:00,54.9,53.8,29.89,ENE,58,2.0,8.0,96,0.13,,,0.25,meteohub,2013-06-06 16:10:00,
2013-06-06 12:15:00,55.0,54.0,29.89,NE,55,3.0,8.0,96,0.13,,,0.26,meteohub,2013-06-06 16:15:00,
2013-06-06 12:20:00,55.0,54.0,29.89,ENE,65,2.0,7.0,96,0.14,,,0.27,meteohub,2013-06-06 16:20:00,
2013-06-06 12:25:00,55.0,54.0,29.89,ENE,75,2.0,8.0,96,0.15,,,0.27,meteohub,2013-06-06 16:25:00,
2013-06-06 12:31:00,55.0,54.0,29.89,NE,46,5.0,8.0,96,0.16,,,0.32,meteohub,2013-06-06 16:31:00,
2013-06-06 12:36:00,55.0,54.0,29.88,East,84,2.0,8.0,96,0.19,,,0.35,meteohub,2013-06-06 16:36:00,
2013-06-06 12:41:00,55.2,54.1,29.88,East,82,2.0,6.0,96,0.22,,,0.37,meteohub,2013-06-06 16:41:00,
2013-06-06 12:47:00,55.2,54.1,29.88,NNE,33,4.0,8.0,96,0.24,,,0.39,meteohub,2013-06-06 16:47:00,
2013-06-06 12:52:00,55.4,54.3,29.88,East,88,3.0,8.0,96,0.27,,,0.43,meteohub,2013-06-06 16:52:00,
2013-06-06 12:57:00,55.4,54.3,29.88,ENE,78,4.0,8.0,96,0.27,,,0.46,meteohub,2013-06-06 16:57:00,
2013-06-06 13:02:00,55.6,54.5,29.88,East,79,3.0,6.0,96,0.27,,,0.48,meteohub,2013-06-06 17:02:00,
2013-06-06 13:07:00,55.6,54.5,29.87,ESE,102,4.0,8.0,96,0.27,,,0.50,meteohub,2013-06-06 17:07:00,
2013-06-06 13:12:00,55.6,54.5,29.87,East,98,4.0,8.0,96,0.28,,,0.52,meteohub,2013-06-06 17:12:00,
2013-06-06 13:17:00,55.6,54.5,29.87,East,98,6.0,10.0,96,0.29,,,0.55,meteohub,2013-06-06 17:17:00,
2013-06-06 13:22:00,55.8,54.7,29.87,East,101,5.0,12.0,96,0.30,,,0.57,meteohub,2013-06-06 17:22:00,
2013-06-06 13:27:00,55.8,54.7,29.86,ENE,61,1.0,12.0,96,0.33,,,0.61,meteohub,2013-06-06 17:27:00,
2013-06-06 13:32:00,55.9,54.9,29.86,ENE,69,4.0,12.0,96,0.33,,,0.65,meteohub,2013-06-06 17:32:00,
2013-06-06 13:37:00,55.9,54.9,29.86,ENE,78,5.0,11.0,96,0.34,,,0.69,meteohub,2013-06-06 17:37:00,
2013-06-06 13:42:00,55.9,54.9,29.86,East,87,3.0,11.0,96,0.34,,,0.71,meteohub,2013-06-06 17:42:00,
2013-06-06 13:47:00,56.1,55.2,29.86,East,98,4.0,11.0,97,0.33,,,0.73,meteohub,2013-06-06 17:47:00,
2013-06-06 13:52:00,56.1,55.2,29.86,East,92,0.0,8.0,97,0.32,,,0.76,meteohub,2013-06-06 17:52:00,
2013-06-06 13:57:00,56.3,55.4,29.86,East,80,2.0,8.0,97,0.32,,,0.78,meteohub,2013-06-06 17:57:00,
2013-06-06 14:02:00,56.5,55.6,29.86,ENE,73,3.0,8.0,97,0.31,,,0.79,meteohub,2013-06-06 18:02:00,
2013-06-06 14:07:00,56.5,55.6,29.86,ESE,105,1.0,7.0,97,0.31,,,0.81,meteohub,2013-06-06 18:07:00,
2013-06-06 14:12:00,56.7,55.8,29.86,East,93,0.0,8.0,97,0.31,,,0.84,meteohub,2013-06-06 18:12:00,
2013-06-06 14:17:00,56.7,55.8,29.86,NE,38,2.0,8.0,97,0.33,,,0.88,meteohub,2013-06-06 18:17:00,
2013-06-06 14:22:00,56.7,55.8,29.86,NE,50,1.0,8.0,97,0.36,,,0.92,meteohub,2013-06-06 18:22:00,
2013-06-06 14:27:00,56.8,55.9,29.86,NE,50,0.0,5.0,97,0.38,,,0.99,meteohub,2013-06-06 18:27:00,
2013-06-06 14:32:00,56.8,55.9,29.86,NE,50,2.0,4.0,97,0.40,,,1.05,meteohub,2013-06-06 18:32:00,
2013-06-06 14:37:00,57.0,56.1,29.85,East,94,1.0,6.0,97,0.43,,,1.12,meteohub,2013-06-06 18:37:00,
2013-06-06 14:43:00,57.2,56.3,29.85,ENE,61,4.0,6.0,97,0.46,,,1.17,meteohub,2013-06-06 18:43:00,
2013-06-06 14:48:00,57.4,56.5,29.85,East,81,3.0,6.0,97,0.46,,,1.19,meteohub,2013-06-06 18:48:00,
2013-06-06 14:53:00,57.4,56.5,29.85,East,87,1.0,6.0,97,0.43,,,1.20,meteohub,2013-06-06 18:53:00,
2013-06-06 14:58:00,57.6,56.7,29.85,ESE,103,1.0,7.0,97,0.43,,,1.21,meteohub,2013-06-06 18:58:00,
2013-06-06 15:03:00,57.7,56.8,29.85,East,90,2.0,7.0,97,0.43,,,1.22,meteohub,2013-06-06 19:03:00,
2013-06-06 15:08:00,57.7,56.8,29.85,East,84,1.0,7.0,97,0.42,,,1.23,meteohub,2013-06-06 19:08:00,
2013-06-06 15:13:00,57.9,57.0,29.85,East,101,2.0,7.0,97,0.40,,,1.24,meteohub,2013-06-06 19:13:00,
2013-06-06 15:18:00,58.3,57.4,29.85,East,96,4.0,7.0,97,0.36,,,1.24,meteohub,2013-06-06 19:18:00,
2013-06-06 15:23:00,58.5,57.6,29.85,ENE,76,4.0,7.0,97,0.30,,,1.24,meteohub,2013-06-06 19:23:00,
2013-06-06 15:28:00,58.5,57.6,29.84,ENE,78,3.0,8.0,97,0.23,,,1.24,meteohub,2013-06-06 19:28:00,
2013-06-06 15:33:00,58.5,57.6,29.84,East,81,4.0,8.0,97,0.19,,,1.24,meteohub,2013-06-06 19:33:00,
2013-06-06 15:34:00,58.5,57.6,29.84,ESE,102,4.0,8.0,97,0.19,,,1.24,meteohub,2013-06-06 19:34:00,
2013-06-06 15:40:00,58.5,57.6,29.82,ENE,72,4.0,8.0,97,0.13,,,1.25,meteohub,2013-06-06 19:40:00,
2013-06-06 15:45:00,58.6,57.7,29.82,East,100,4.0,8.0,97,0.08,,,1.25,meteohub,2013-06-06 19:45:00,
2013-06-06 15:50:00,58.6,57.7,29.83,SSE,150,1.0,13.0,97,0.05,,,1.25,meteohub,2013-06-06 19:50:00,
2013-06-06 15:55:00,58.8,57.9,29.83,East,100,0.0,13.0,97,0.05,,,1.25,meteohub,2013-06-06 19:55:00,
2013-06-06 16:00:00,58.8,57.9,29.83,East,101,7.0,13.0,97,0.05,,,1.26,meteohub,2013-06-06 20:00:00,
2013-06-06 16:05:00,59.0,58.1,29.83,East,94,4.0,7.0,97,0.05,,,1.27,meteohub,2013-06-06 20:05:00,
2013-06-06 16:10:00,59.0,58.1,29.83,ESE,122,2.0,7.0,97,0.04,,,1.27,meteohub,2013-06-06 20:10:00,
2013-06-06 16:15:00,59.2,58.3,29.83,SE,141,0.0,7.0,97,0.03,,,1.27,meteohub,2013-06-06 20:15:00,
2013-06-06 16:20:00,59.4,58.5,29.82,SE,136,0.0,7.0,97,0.03,,,1.27,meteohub,2013-06-06 20:20:00,
2013-06-06 16:25:00,59.2,58.3,29.82,SE,134,4.0,7.0,97,0.03,,,1.27,meteohub,2013-06-06 20:25:00,
2013-06-06 16:30:00,59.0,58.1,29.82,SE,130,6.0,11.0,97,0.03,,,1.27,meteohub,2013-06-06 20:30:00,
2013-06-06 16:35:00,58.8,57.9,29.82,East,92,7.0,11.0,97,0.02,,,1.27,meteohub,2013-06-06 20:35:00,
2013-06-06 16:40:00,58.8,57.9,29.82,East,98,4.0,11.0,97,0.02,,,1.27,meteohub,2013-06-06 20:40:00,
2013-06-06 16:45:00,58.8,57.9,29.82,ESE,115,4.0,12.0,97,0.02,,,1.27,meteohub,2013-06-06 20:45:00,
2013-06-06 16:50:00,58.8,57.9,29.82,SE,133,2.0,12.0,97,0.02,,,1.27,meteohub,2013-06-06 20:50:00,
2013-06-06 16:55:00,58.6,57.7,29.82,East,94,2.0,12.0,97,0.02,,,1.27,meteohub,2013-06-06 20:55:00,
2013-06-06 17:00:00,58.5,57.4,29.82,East,85,2.0,9.0,96,0.01,,,1.27,meteohub,2013-06-06 21:00:00,
2013-06-06 17:05:00,58.6,57.7,29.82,SE,138,4.0,11.0,97,0.00,,,1.27,meteohub,2013-06-06 21:05:00,
2013-06-06 17:10:00,58.5,57.4,29.83,East,98,7.0,11.0,96,0.00,,,1.27,meteohub,2013-06-06 21:10:00,
2013-06-06 17:15:00,58.3,57.2,29.83,ESE,106,4.0,11.0,96,0.00,,,1.27,meteohub,2013-06-06 21:15:00,
2013-06-06 17:20:00,58.3,57.2,29.83,East,80,2.0,9.0,96,0.00,,,1.27,meteohub,2013-06-06 21:20:00,
2013-06-06 17:26:00,58.3,57.2,29.83,SE,140,0.0,9.0,96,0.00,,,1.27,meteohub,2013-06-06 21:26:00,
2013-06-06 17:31:00,58.3,57.2,29.83,East,96,4.0,8.0,96,0.00,,,1.27,meteohub,2013-06-06 21:31:00,
2013-06-06 17:36:00,58.3,57.2,29.82,ESE,117,5.0,8.0,96,0.00,,,1.27,meteohub,2013-06-06 21:36:00,
2013-06-06 17:41:00,58.3,57.2,29.82,ESE,107,4.0,8.0,96,0.01,,,1.27,meteohub,2013-06-06 21:41:00,
2013-06-06 17:46:00,58.3,57.2,29.81,SE,130,2.0,11.0,96,0.01,,,1.28,meteohub,2013-06-06 21:46:00,
2013-06-06 17:51:00,58.3,57.2,29.81,ESE,105,5.0,11.0,96,0.01,,,1.28,meteohub,2013-06-06 21:51:00,
2013-06-06 17:56:00,58.3,57.2,29.81,ESE,106,4.0,8.0,96,0.01,,,1.28,meteohub,2013-06-06 21:56:00,
2013-06-06 18:01:00,58.3,57.2,29.81,ESE,107,8.0,8.0,96,0.01,,,1.28,meteohub,2013-06-06 22:01:00,
2013-06-06 18:06:00,58.3,57.2,29.80,ESE,107,2.0,8.0,96,0.01,,,1.28,meteohub,2013-06-06 22:06:00,
2013-06-06 18:11:00,58.3,57.2,29.80,ESE,122,2.0,9.0,96,0.01,,,1.28,meteohub,2013-06-06 22:11:00,
2013-06-06 18:16:00,58.3,57.2,29.81,ENE,76,2.0,9.0,96,0.01,,,1.28,meteohub,2013-06-06 22:16:00,
2013-06-06 18:21:00,58.3,57.2,29.81,SE,126,6.0,9.0,96,0.01,,,1.29,meteohub,2013-06-06 22:21:00,
2013-06-06 18:26:00,58.3,57.2,29.80,ESE,108,6.0,9.0,96,0.02,,,1.29,meteohub,2013-06-06 22:26:00,
2013-06-06 18:32:00,58.1,57.0,29.80,SE,134,1.0,9.0,96,0.02,,,1.29,meteohub,2013-06-06 22:32:00,
2013-06-06 18:37:00,58.1,57.0,29.80,ENE,69,2.0,9.0,96,0.02,,,1.29,meteohub,2013-06-06 22:37:00,
2013-06-06 18:42:00,58.1,57.0,29.79,East,99,4.0,9.0,96,0.01,,,1.29,meteohub,2013-06-06 22:42:00,
2013-06-06 18:47:00,58.3,57.2,29.80,ESE,110,4.0,9.0,96,0.01,,,1.29,meteohub,2013-06-06 22:47:00,
2013-06-06 18:52:00,58.3,57.2,29.80,East,84,4.0,11.0,96,0.01,,,1.29,meteohub,2013-06-06 22:52:00,
2013-06-06 18:57:00,58.3,57.2,29.80,SE,126,0.0,11.0,96,0.01,,,1.29,meteohub,2013-06-06 22:57:00,
2013-06-06 19:02:00,58.3,57.2,29.80,East,94,1.0,11.0,96,0.01,,,1.29,meteohub,2013-06-06 23:02:00,
2013-06-06 19:07:00,58.3,57.2,29.80,East,90,0.0,8.0,96,0.01,,,1.29,meteohub,2013-06-06 23:07:00,
2013-06-06 19:12:00,58.3,57.2,29.80,SE,129,0.0,6.0,96,0.01,,,1.29,meteohub,2013-06-06 23:12:00,
2013-06-06 19:17:00,58.3,57.2,29.80,ENE,74,3.0,5.0,96,0.01,,,1.29,meteohub,2013-06-06 23:17:00,
2013-06-06 19:22:00,58.3,57.2,29.80,East,101,4.0,5.0,96,0.00,,,1.29,meteohub,2013-06-06 23:22:00,
2013-06-06 19:27:00,58.3,57.2,29.80,ENE,69,0.0,6.0,96,0.00,,,1.29,meteohub,2013-06-06 23:27:00,
2013-06-06 19:32:00,58.5,57.4,29.80,ENE,69,1.0,6.0,96,0.00,,,1.29,meteohub,2013-06-06 23:32:00,
2013-06-06 19:37:00,58.5,57.4,29.79,East,97,1.0,6.0,96,0.00,,,1.29,meteohub,2013-06-06 23:37:00,
2013-06-06 19:42:00,58.5,57.4,29.79,East,97,0.0,4.0,96,0.00,,,1.29,meteohub,2013-06-06 23:42:00,
2013-06-06 19:47:00,58.5,57.4,29.80,East,96,0.0,5.0,96,0.00,,,1.29,meteohub,2013-06-06 23:47:00,
2013-06-06 19:53:00,58.5,57.4,29.80,East,96,0.0,5.0,96,0.00,,,1.29,meteohub,2013-06-06 23:53:00,
2013-06-06 19:58:00,58.5,57.4,29.80,East,96,4.0,5.0,96,0.00,,,1.29,meteohub,2013-06-06 23:58:00,
2013-06-06 20:03:00,58.5,57.4,29.80,East,96,0.0,5.0,96,0.00,,,1.29,meteohub,2013-06-07 00:03:00,
2013-06-06 20:08:00,58.5,57.4,29.80,East,96,0.0,5.0,96,0.00,,,1.29,meteohub,2013-06-07 00:08:00,
2013-06-06 20:13:00,58.5,57.4,29.79,East,94,1.0,5.0,96,0.00,,,1.29,meteohub,2013-06-07 00:13:00,
2013-06-06 20:18:00,58.5,57.4,29.80,East,94,0.0,4.0,96,0.00,,,1.29,meteohub,2013-06-07 00:18:00,
2013-06-06 20:23:00,58.5,57.4,29.80,East,89,2.0,4.0,96,0.00,,,1.29,meteohub,2013-06-07 00:23:00,
2013-06-06 20:28:00,58.5,57.4,29.79,East,82,2.0,4.0,96,0.00,,,1.29,meteohub,2013-06-07 00:28:00,
2013-06-06 20:33:00,58.3,57.2,29.79,East,86,0.0,4.0,96,0.00,,,1.29,meteohub,2013-06-07 00:33:00,
2013-06-06 20:38:00,58.3,57.2,29.79,East,92,2.0,4.0,96,0.00,,,1.29,meteohub,2013-06-07 00:38:00,
2013-06-06 20:43:00,58.3,57.2,29.79,East,92,2.0,4.0,96,0.00,,,1.29,meteohub,2013-06-07 00:43:00,
2013-06-06 20:48:00,58.3,57.2,29.80,East,92,0.0,4.0,96,0.00,,,1.29,meteohub,2013-06-07 00:48:00,
2013-06-06 20:53:00,58.3,57.2,29.79,East,92,4.0,4.0,96,0.00,,,1.29,meteohub,2013-06-07 00:53:00,
2013-06-06 20:58:00,58.1,57.0,29.79,East,84,2.0,4.0,96,0.00,,,1.29,meteohub,2013-06-07 00:58:00,
2013-06-06 21:03:00,57.9,56.8,29.79,East,84,0.0,4.0,96,0.00,,,1.29,meteohub,2013-06-07 01:03:00,
2013-06-06 21:08:00,57.9,56.8,29.79,East,84,0.0,4.0,96,0.00,,,1.29,meteohub,2013-06-07 01:08:00,
2013-06-06 21:13:00,57.9,56.8,29.79,East,84,0.0,4.0,96,0.00,,,1.29,meteohub,2013-06-07 01:13:00,
2013-06-06 21:18:00,57.9,56.8,29.79,East,84,0.0,4.0,96,0.00,,,1.29,meteohub,2013-06-07 01:18:00,
2013-06-06 21:23:00,57.9,56.8,29.79,East,89,0.0,5.0,96,0.00,,,1.29,meteohub,2013-06-07 01:23:00,
2013-06-06 21:28:00,57.7,56.7,29.79,East,89,0.0,5.0,96,0.00,,,1.29,meteohub,2013-06-07 01:28:00,
2013-06-06 21:33:00,57.7,56.7,29.79,East,89,0.0,5.0,96,0.00,,,1.29,meteohub,2013-06-07 01:33:00,
2013-06-06 21:38:00,57.7,56.7,29.79,ENE,66,1.0,3.0,96,0.00,,,1.29,meteohub,2013-06-07 01:38:00,
2013-06-06 21:43:00,57.7,56.7,29.80,East,93,4.0,4.0,96,0.00,,,1.29,meteohub,2013-06-07 01:43:00,
2013-06-06 21:49:00,57.7,56.7,29.80,East,88,1.0,4.0,96,0.00,,,1.29,meteohub,2013-06-07 01:49:00,
2013-06-06 21:54:00,57.7,56.7,29.80,East,88,0.0,5.0,96,0.00,,,1.29,meteohub,2013-06-07 01:54:00,
2013-06-06 21:59:00,57.7,56.7,29.80,East,87,2.0,5.0,96,0.00,,,1.29,meteohub,2013-06-07 01:59:00,
2013-06-06 22:04:00,57.7,56.7,29.80,East,87,0.0,5.0,96,0.00,,,1.29,meteohub,2013-06-07 02:04:00,
2013-06-06 22:09:00,57.7,56.7,29.79,East,87,1.0,4.0,96,0.00,,,1.29,meteohub,2013-06-07 02:09:00,
2013-06-06 22:14:00,57.7,56.7,29.79,East,92,4.0,4.0,96,0.00,,,1.29,meteohub,2013-06-07 02:14:00,
2013-06-06 22:19:00,57.7,56.7,29.80,East,92,1.0,5.0,96,0.00,,,1.29,meteohub,2013-06-07 02:19:00,
2013-06-06 22:24:00,57.7,56.7,29.79,ENE,71,0.0,5.0,96,0.00,,,1.29,meteohub,2013-06-07 02:24:00,
2013-06-06 22:29:00,57.6,56.5,29.80,ENE,71,2.0,5.0,96,0.00,,,1.29,meteohub,2013-06-07 02:29:00,
2013-06-06 22:34:00,57.6,56.5,29.80,ENE,71,1.0,5.0,96,0.00,,,1.29,meteohub,2013-06-07 02:34:00,
2013-06-06 22:39:00,57.6,56.5,29.80,ENE,71,2.0,4.0,96,0.00,,,1.29,meteohub,2013-06-07 02:39:00,
2013-06-06 22:44:00,57.6,56.5,29.80,ENE,69,2.0,4.0,96,0.00,,,1.29,meteohub,2013-06-07 02:44:00,
2013-06-06 22:49:00,57.6,56.5,29.80,NE,48,3.0,5.0,96,0.00,,,1.29,meteohub,2013-06-07 02:49:00,
2013-06-06 22:54:00,57.6,56.5,29.80,NE,49,0.0,5.0,96,0.00,,,1.29,meteohub,2013-06-07 02:54:00,
2013-06-06 22:59:00,57.4,56.3,29.80,NE,49,1.0,5.0,96,0.00,,,1.29,meteohub,2013-06-07 02:59:00,
2013-06-06 23:04:00,57.4,56.3,29.80,ESE,102,1.0,4.0,96,0.00,,,1.29,meteohub,2013-06-07 03:04:00,
2013-06-06 23:09:00,57.4,56.3,29.80,East,84,0.0,4.0,96,0.00,,,1.29,meteohub,2013-06-07 03:09:00,
2013-06-06 23:14:00,57.2,56.1,29.80,ESE,116,0.0,5.0,96,0.01,,,1.30,meteohub,2013-06-07 03:14:00,
2013-06-06 23:19:00,57.2,56.1,29.80,ESE,116,0.0,5.0,96,0.01,,,1.30,meteohub,2013-06-07 03:19:00,
2013-06-06 23:24:00,57.2,56.1,29.81,ESE,116,2.0,5.0,96,0.01,,,1.30,meteohub,2013-06-07 03:24:00,
2013-06-06 23:29:00,57.2,56.1,29.80,ESE,116,0.0,4.0,96,0.01,,,1.30,meteohub,2013-06-07 03:29:00,
2013-06-06 23:34:00,57.2,56.3,29.80,ESE,116,0.0,4.0,97,0.01,,,1.30,meteohub,2013-06-07 03:34:00,
2013-06-06 23:39:00,57.0,56.1,29.80,ESE,116,0.0,4.0,97,0.01,,,1.30,meteohub,2013-06-07 03:39:00,
2013-06-06 23:44:00,57.0,56.1,29.79,ESE,116,0.0,2.0,97,0.01,,,1.30,meteohub,2013-06-07 03:44:00,
2013-06-06 23:49:00,57.0,56.1,29.80,ESE,116,1.0,2.0,97,0.01,,,1.30,meteohub,2013-06-07 03:49:00,
2013-06-06 23:54:00,57.0,56.1,29.80,ESE,116,0.0,2.0,97,0.01,,,1.30,meteohub,2013-06-07 03:54:00,